Tracking 30994 objects as of 8-Jul-2025
HD Live streaming from Space Station
objects crossing your sky now

DELTA 1 DEB

Track DELTA 1 DEB now!
10-day predictions


NORAD ID: 7136
Int'l Code: 1973-086DA
Perigee: 1,414.9 km
Apogee: 1,496.6 km
Inclination: 101.6 °
Period: 114.9 minutes
Semi major axis: 7826 km
RCS: 0.0415 m2 (small)
Launch date: November 6, 1973
Source: United States (US)
Launch site: AIR FORCE WESTERN TEST RANGE (AFWTR)

Note: This is SATELLITE DEBRIS
Your satellite tracking list
Your tracking list is empty




NASA's NSSDC Master Catalog

Two Line Element Set (TLE):
1 07136U 73086DA  25188.89250896 -.00000072  00000-0 -17341-3 0  9992
2 07136 101.5596 170.0798 0052151  36.5066 352.6947 12.53807893358343
Source of the keplerian elements: AFSPC